TimeEST,TemperatureF,Dew PointF,Humidity,Sea Level PressureIn,VisibilityMPH,Wind Direction,Wind SpeedMPH,Gust SpeedMPH,PrecipitationIn,Events,Conditions,WindDirDegrees,DateUTC
12:51 AM,48.0,44.1,86,29.74,10.0,NW,9.2,-,N/A,,Overcast,320,2013-11-03 04:51:00
1:06 AM,46.4,42.8,87,29.76,10.0,NW,11.5,-,N/A,,Overcast,320,2013-11-03 05:06:00
1:17 AM,46.4,42.8,87,29.77,10.0,NNW,9.2,-,N/A,,Overcast,330,2013-11-03 05:17:00
1:49 AM,46.4,39.2,76,29.79,10.0,NE,9.2,-,N/A,,Overcast,40,2013-11-03 05:49:00
1:51 AM,46.9,37.9,71,29.79,10.0,NNE,8.1,-,N/A,,Overcast,20,2013-11-03 05:51:00
1:51 AM,43.0,35.1,74,29.83,10.0,NNE,8.1,23.0,0.00,,Overcast,20,2013-11-03 06:51:00
2:18 AM,42.8,35.6,76,29.83,10.0,North,10.4,17.3,N/A,,Overcast,10,2013-11-03 07:18:00
2:51 AM,43.0,34.0,71,29.84,10.0,North,10.4,-,N/A,,Overcast,10,2013-11-03 07:51:00
3:10 AM,42.8,33.8,70,29.85,10.0,NNE,8.1,-,N/A,,Overcast,20,2013-11-03 08:10:00
3:51 AM,42.1,33.1,70,29.88,10.0,NNE,10.4,16.1,N/A,,Overcast,20,2013-11-03 08:51:00
4:51 AM,41.0,33.1,73,29.91,10.0,NNE,5.8,-,N/A,,Overcast,20,2013-11-03 09:51:00
5:44 AM,41.0,30.2,65,29.95,10.0,North,9.2,-,N/A,,Overcast,10,2013-11-03 10:44:00
5:51 AM,41.0,30.0,65,29.96,10.0,North,6.9,-,N/A,,Overcast,10,2013-11-03 10:51:00
6:51 AM,41.0,28.9,62,29.99,10.0,North,8.1,-,N/A,,Overcast,360,2013-11-03 11:51:00
7:51 AM,41.0,28.9,62,30.03,10.0,North,10.4,-,N/A,,Overcast,360,2013-11-03 12:51:00
8:51 AM,41.0,28.9,62,30.06,10.0,North,5.8,-,0.00,,Overcast,350,2013-11-03 13:51:00
9:51 AM,41.0,27.0,57,30.08,10.0,NNE,4.6,-,N/A,,Overcast,30,2013-11-03 14:51:00
10:51 AM,41.0,27.0,57,30.10,10.0,North,5.8,-,N/A,,Overcast,360,2013-11-03 15:51:00
11:51 AM,44.1,26.1,49,30.09,10.0,North,9.2,-,N/A,,Overcast,350,2013-11-03 16:51:00
12:51 PM,44.1,24.1,45,30.11,10.0,NNW,8.1,-,N/A,,Mostly Cloudy,330,2013-11-03 17:51:00
1:51 PM,43.0,25.0,49,30.12,10.0,NNW,6.9,-,N/A,,Mostly Cloudy,340,2013-11-03 18:51:00
2:51 PM,46.0,24.1,42,30.14,10.0,NNW,10.4,-,N/A,,Scattered Clouds,330,2013-11-03 19:51:00
3:51 PM,42.1,18.0,38,30.17,10.0,WNW,8.1,-,N/A,,Clear,300,2013-11-03 20:51:00
4:51 PM,39.0,18.0,43,30.21,10.0,NW,9.2,-,N/A,,Clear,310,2013-11-03 21:51:00
5:51 PM,35.1,18.0,50,30.25,10.0,NNW,8.1,-,N/A,,Clear,330,2013-11-03 22:51:00
6:51 PM,35.1,16.0,46,30.29,10.0,North,6.9,-,N/A,,Clear,350,2013-11-03 23:51:00
7:51 PM,32.0,16.0,52,30.31,10.0,NNW,8.1,-,N/A,,Clear,340,2013-11-04 00:51:00
8:51 PM,30.9,16.0,54,30.35,10.0,NNW,8.1,-,N/A,,Clear,330,2013-11-04 01:51:00
9:51 PM,30.9,15.1,52,30.38,10.0,NNW,9.2,-,N/A,,Clear,340,2013-11-04 02:51:00
10:51 PM,28.9,16.0,58,30.40,10.0,NW,5.8,-,N/A,,Clear,320,2013-11-04 03:51:00